Flag for China Weather past 2 weeks in Hohhot, Inner Mongolia, China

Now
61 °F

Sprinkles. Passing clouds.


Feels Like: 61 °F
Forecast: 56 / 69 °F
Wind: 3 mph from Northeast

Location: Hohhot Airport

Current Time: Sep 4, 2015 at 8:25:21 PM

Latest Report: Sep 4, 2015 at 8:00 PM


Visibility: N/A

Pressure: 29.86 "Hg (26.37 "Hg at 1053m altitude)

Humidity: 94%

Dew point: 59 °F

Location of HohhotLocation

Historic Weather in Hohhot — Graph

°F

Hohhot temperature yesterday

Maximum temperature yesterday: 82 °F (at 3:00 PM)
Minimum temperature yesterday: 55 °F (at 5:00 AM)
Average temperature yesterday: 70 °F

Past Weeks' High & Low Weather Summary

 TemperatureHumidityPressure
High84 °F (Aug 27, 5:00 PM)100% (Sep 4, 3:00 PM)30.15 "Hg (Sep 4, 3:00 PM)
Low50 °F (Sep 1, 5:00 AM)21% (Aug 23, 1:00 PM)29.83 "Hg (Aug 23, 4:00 PM)
Average66 °F56%29.97 "Hg
* Reported Aug 20 7:00 PM — Sep 4 7:00 PM, Hohhot, Weather by CustomWeather, © 2015

Note: Actual official high and low records may vary slightly from our data, if they occured in-between our weather recording intervals... More about our weather records

Advertising

Hohhot weather history for previous 24 hours

 ConditionsComfort  
Time TempWeatherWind HumidityBarometerVisibility
7:00 PM
Fri, Sep 4
61 °FScattered clouds.3 mph94%29.83 "HgN/A
6:00 PM63 °FScattered clouds.3 mph88%29.83 "HgN/A
5:00 PM61 °FBroken clouds.1 mph94%29.83 "HgN/A
4:00 PM61 °FLight rain. Broken clouds.3 mph94%29.83 "Hg4 mi
3:00 PM59 °FLight rain. Fog.6 mph100%29.86 "Hg2 mi
2:00 PM59 °FLight rain. Fog.8 mph94%29.86 "Hg3 mi
1:00 PM61 °FLight rain. Broken clouds.10 mph88%29.89 "Hg5 mi
12:00 PM61 °FLight rain. Broken clouds.6 mph94%29.89 "Hg6 mi
11:00 AM61 °FLight rain. Fog.3 mph94%29.92 "Hg2 mi
10:00 AM61 °FLight rain. Broken clouds.3 mph88%29.92 "Hg4 mi
9:00 AM61 °FLight rain. Fog.6 mph94%29.95 "Hg1 mi
8:00 AM61 °FLight rain. Fog.3 mph94%29.95 "Hg2 mi
7:00 AM61 °FLight rain. Fog.1 mph94%29.95 "Hg3 mi
6:00 AM61 °FLight rain. Passing clouds.3 mph88%29.95 "Hg4 mi
5:00 AM64 °FSprinkles. Passing clouds.13 mph78%29.95 "HgN/A
4:00 AM66 °FPassing clouds.1 mph56%29.92 "HgN/A
3:00 AM68 °FPassing clouds.3 mph53%29.92 "HgN/A
2:00 AM70 °FPassing clouds.1 mph46%29.95 "HgN/A
1:00 AM68 °FPassing clouds.1 mph49%29.95 "HgN/A
12:00 AM68 °FPassing clouds.3 mph46%29.95 "HgN/A
11:00 PM
Thu, Sep 3
66 °FPassing clouds.3 mph52%29.98 "HgN/A
10:00 PM70 °FPassing clouds.3 mph43%29.98 "HgN/A
9:00 PM72 °FPassing clouds.3 mph44%29.98 "HgN/A
8:00 PM75 °FPassing clouds.3 mph34%29.95 "HgN/A
Weather by CustomWeather, © 2015

See weather overviewHow to use our weather pages